Regional Weather Roundup
Issued by NWS

Home | Current Version | Previous Version | Text Only | Print | Product List | Glossary Off
Versions: 1 2 3 4 5 6 7 8 9 10 11 12 13 14 15 16 17 18 19 20 21 22 23 24 25 26 27 28 29 30 31 32 33 34 35 36 37 38 39 40 41 42 43 44 45 46 47 48 49 50

000
ASUS43 KFSD 190010
RWRSD

WEATHER ROUNDUP FOR SOUTH DAKOTA
NATIONAL WEATHER SERVICE SIOUX FALLS SD
600 PM CST SUN FEB 18 2018

NOTE: "FAIR" INDICATES FEW OR NO CLOUDS BELOW 12,000 FEET WITH NO
SIGNIFICANT WEATHER AND/OR OBSTRUCTIONS TO VISIBILITY.


SDZ001>005-009-010-012>017-190100-
NORTHWEST AND NORTH CENTRAL SOUTH DAKOTA

CITY           SKY/WX    TMP DP  RH WIND       PRES   REMARKS
BUFFALO          N/A      9   3  77 N18       29.80R WCI -10
FAITH            N/A      8   6  92 N25       29.84R WCI -13
MOBRIDGE       CLOUDY    15   7  70 N24G30    29.83R WCI  -4
$$

SDZ012>016-024>037-041>051-057-063-072>074-190100-
SOUTHWEST AND SOUTH CENTRAL SOUTH DAKOTA

CITY           SKY/WX    TMP DP  RH WIND       PRES   REMARKS
RAPID CTY ARPT LGT SNOW   8   4  83 N24G32    29.81R VSB 3/4 WCI -13
PIERRE         LGT SNOW  17  14  88 N22       29.78F FOG     WCI   0
CUSTER         LGT SNOW  17  14  88 VRB5      29.58R FOG     WCI  10
ELLSWORTH AFB  BLWGSNOW   9   7  92 NW23G31   29.81  VSB 5/8 WCI -12
PHILIP         LGT SNOW  14  11  87 N21       29.82R FOG     WCI  -4
PINE RIDGE     LGT SNOW  15  10  80 N16G24    29.74R WCI  -1
SPEARFISH      LGT SNOW   5   1  85 MISG      29.82R VSB 3/4
WINNER         CLOUDY    22  18  85 N28G33    29.69F WCI   4
$$

SDZ004>011-016>023-039-040-190100-
NORTHEAST SOUTH DAKOTA

CITY           SKY/WX    TMP DP  RH WIND       PRES   REMARKS
ABERDEEN       FLURRIES  18  11  74 N24G33    29.83R WCI   0
WATERTOWN      CLOUDY    21  17  84 N21G30    29.68R WCI   5
SISSETON         N/A     19  14  81 N24       29.78R WCI   2
$$

SDZ017-020-022-023-036>040-048>070-190100-
SOUTHEAST SOUTH DAKOTA

CITY           SKY/WX    TMP DP  RH WIND       PRES   REMARKS
SIOUX FALLS    CLOUDY    35  29  78 NW10      29.60R WCI  27
HURON          MOCLDY    22  16  78 N23G32    29.74R WCI   6
CHAMBERLAIN    CLOUDY    23  19  85 NW20G25   29.71F WCI   9
MITCHELL       MOCLDY    27  22  81 N24G30    29.70R WCI  12
YANKTON        CLOUDY    32  28  85 NW21      29.62R WCI  20
$$

ABBREVIATIONS USED IN REMARKS
   TC - TEMPERATURE IN CELSIUS
  WCI - WIND CHILL INDEX
   HX - HEAT INDEX
  VSB - VISIBILITY





USA.gov is the U.S. government's official web portal to all federal, state and local government web resources and services.